When you browse on this site, cookies collect data to enhance your experience and personalize the content and advertising you see.
Visit our Privacy Policy to learn more. By continuing to use the site, you agree to this use of cookies and data.
  • en Suisse
  • Liste des pays
  • À 7 jours
  • Température de l'eau
  • Carte satellitaire
  • Carte météo
  • Widgets météo
  • user-avatar
    Se connecter

    Météo par heure à Albany

    Ce jour, 27 Mai, Lundi

    Heure Température Précipitation Vent Pression Humidité
    00:00 +12°C° 0 mm 1 m/s 767 mmHg 89%
    01:00 +12°C° 0 mm 1 m/s 767 mmHg 88%
    02:00 +12°C° 0 mm 1 m/s 767 mmHg 88%
    03:00 +12°C° 0 mm 1 m/s 767 mmHg 89%
    04:00 +11°C° 0 mm 0 m/s 767 mmHg 89%
    05:00 +11°C° 0 mm 0 m/s 767 mmHg 90%
    06:00 +11°C° 0 mm 0 m/s 767 mmHg 90%
    07:00 +11°C° 0 mm 0 m/s 767 mmHg 89%
    08:00 +11°C° 0 mm 0 m/s 767 mmHg 89%
    09:00 +13°C° 0 mm 0 m/s 767 mmHg 80%
    10:00 +16°C° 0 mm 1 m/s 767 mmHg 70%
    11:00 +19°C° 0 mm 1 m/s 767 mmHg 61%
    12:00 +19°C° 0 mm 1 m/s 767 mmHg 61%
    13:00 +19°C° 0 mm 1 m/s 766 mmHg 60%
    14:00 +18°C° 0 mm 2 m/s 766 mmHg 59%
    15:00 +17°C° 0 mm 2 m/s 766 mmHg 64%
    16:00 +16°C° 0 mm 2 m/s 766 mmHg 69%
    17:00 +15°C° 0 mm 2 m/s 766 mmHg 74%
    18:00 +14°C° 0 mm 2 m/s 766 mmHg 77%
    19:00 +13°C° 0 mm 2 m/s 766 mmHg 80%
    20:00 +13°C° 0 mm 2 m/s 766 mmHg 83%
    21:00 +12°C° 0 mm 2 m/s 766 mmHg 84%
    22:00 +12°C° 0 mm 2 m/s 766 mmHg 85%
    23:00 +12°C° 0 mm 2 m/s 767 mmHg 86%

    Demain, 28 Mai, Mardi

    Heure Température Précipitation Vent Pression Humidité
    00:00 +12°C° 0 mm 1 m/s 766 mmHg 87%
    01:00 +12°C° 0 mm 1 m/s 766 mmHg 88%
    02:00 +11°C° 0 mm 1 m/s 766 mmHg 90%
    03:00 +11°C° 0 mm 1 m/s 766 mmHg 90%
    04:00 +11°C° 0 mm 1 m/s 766 mmHg 91%
    05:00 +11°C° 0 mm 1 m/s 766 mmHg 91%
    06:00 +11°C° 0 mm 1 m/s 766 mmHg 90%
    07:00 +12°C° 0 mm 1 m/s 766 mmHg 89%
    08:00 +12°C° 0 mm 1 m/s 766 mmHg 88%
    09:00 +14°C° 0 mm 2 m/s 766 mmHg 81%
    10:00 +15°C° 0 mm 2 m/s 766 mmHg 73%
    11:00 +17°C° 0 mm 2 m/s 766 mmHg 65%
    12:00 +17°C° 0 mm 3 m/s 766 mmHg 64%
    13:00 +18°C° 0 mm 3 m/s 766 mmHg 63%
    14:00 +18°C° 0 mm 3 m/s 765 mmHg 62%
    15:00 +17°C° 0 mm 3 m/s 765 mmHg 67%
    16:00 +16°C° 0 mm 3 m/s 765 mmHg 71%
    17:00 +14°C° 0 mm 4 m/s 765 mmHg 76%
    18:00 +13°C° 0 mm 4 m/s 766 mmHg 79%
    19:00 +12°C° 0 mm 4 m/s 766 mmHg 83%
    20:00 +12°C° 0 mm 4 m/s 766 mmHg 86%
    21:00 +11°C° 0 mm 4 m/s 766 mmHg 87%
    22:00 +11°C° 0 mm 4 m/s 767 mmHg 87%
    23:00 +11°C° 0 mm 4 m/s 767 mmHg 88%

    Après-demain, 29 Mai, Mercredi

    Heure Température Précipitation Vent Pression Humidité
    00:00 +11°C° 0 mm 4 m/s 767 mmHg 88%
    01:00 +11°C° 0 mm 4 m/s 766 mmHg 89%
    02:00 +10°C° 0 mm 4 m/s 766 mmHg 89%
    03:00 +10°C° 0 mm 4 m/s 766 mmHg 89%
    04:00 +10°C° 0 mm 4 m/s 766 mmHg 89%
    05:00 +10°C° 0 mm 4 m/s 766 mmHg 90%
    06:00 +10°C° 0 mm 4 m/s 766 mmHg 89%
    07:00 +11°C° 0 mm 4 m/s 767 mmHg 88%
    08:00 +11°C° 0 mm 4 m/s 767 mmHg 87%
    09:00 +12°C° 0 mm 4 m/s 767 mmHg 81%
    10:00 +14°C° 0 mm 5 m/s 767 mmHg 74%
    11:00 +15°C° 0 mm 5 m/s 767 mmHg 67%
    12:00 +16°C° 0 mm 5 m/s 766 mmHg 65%
    13:00 +16°C° 0 mm 5 m/s 766 mmHg 63%
    14:00 +17°C° 0 mm 5 m/s 765 mmHg 60%
    15:00 +16°C° 0 mm 5 m/s 765 mmHg 65%
    16:00 +15°C° 0 mm 5 m/s 765 mmHg 69%
    17:00 +14°C° 0 mm 5 m/s 765 mmHg 73%
    18:00 +14°C° 0 mm 6 m/s 765 mmHg 76%
    19:00 +13°C° 0 mm 6 m/s 765 mmHg 79%
    20:00 +13°C° 0 mm 6 m/s 766 mmHg 83%
    21:00 +11°C° 0 mm 6 m/s 765 mmHg 83%
    22:00 +11°C° 0 mm 6 m/s 765 mmHg 83%
    23:00 +11°C° 0 mm 7 m/s 765 mmHg 84%

    30 Mai, Jeudi

    Heure Température Précipitation Vent Pression Humidité
    00:00 +11°C° 0 mm 7 m/s 765 mmHg 81%
    01:00 +11°C° 0 mm 7 m/s 764 mmHg 79%
    02:00 +11°C° 0 mm 7 m/s 764 mmHg 76%
    03:00 +11°C° 0 mm 7 m/s 764 mmHg 75%
    04:00 +11°C° 0 mm 6 m/s 763 mmHg 73%
    05:00 +10°C° 0 mm 6 m/s 763 mmHg 72%
    06:00 +11°C° 0 mm 6 m/s 763 mmHg 69%
    07:00 +11°C° 0 mm 7 m/s 763 mmHg 66%
    08:00 +12°C° 0 mm 7 m/s 763 mmHg 63%
    09:00 +15°C° 0 mm 7 m/s 763 mmHg 57%
    10:00 +17°C° 0 mm 7 m/s 763 mmHg 51%
    11:00 +20°C° 0 mm 8 m/s 762 mmHg 45%
    12:00 +21°C° 0 mm 7 m/s 761 mmHg 43%
    13:00 +22°C° 0 mm 7 m/s 760 mmHg 41%
    14:00 +23°C° 0 mm 7 m/s 760 mmHg 39%
    15:00 +22°C° 0 mm 7 m/s 760 mmHg 40%
    16:00 +21°C° 0 mm 6 m/s 760 mmHg 41%
    17:00 +21°C° 0 mm 6 m/s 760 mmHg 43%
    18:00 +21°C° 0 mm 6 m/s 760 mmHg 41%
    19:00 +21°C° 0 mm 6 m/s 760 mmHg 40%
    20:00 +21°C° 0 mm 7 m/s 760 mmHg 38%
    21:00 +21°C° 0 mm 7 m/s 760 mmHg 38%
    22:00 +21°C° 0 mm 7 m/s 760 mmHg 38%
    23:00 +21°C° 0 mm 6 m/s 760 mmHg 37%

    31 Mai, Vendredi

    Heure Température Précipitation Vent Pression Humidité
    00:00 +21°C° 0.1 mm 6 m/s 760 mmHg 42%
    01:00 +20°C° 0.1 mm 6 m/s 760 mmHg 46%
    02:00 +19°C° 0.1 mm 6 m/s 760 mmHg 51%
    03:00 +19°C° 0.1 mm 5 m/s 760 mmHg 57%
    04:00 +17°C° 0.1 mm 5 m/s 761 mmHg 64%
    05:00 +18°C° 0.1 mm 4 m/s 761 mmHg 70%
    06:00 +17°C° 1.3 mm 4 m/s 762 mmHg 77%
    07:00 +16°C° 1.3 mm 3 m/s 763 mmHg 85%
    08:00 +16°C° 1.3 mm 3 m/s 763 mmHg 92%
    09:00 +16°C° 0.2 mm 3 m/s 764 mmHg 88%
    10:00 +16°C° 0.2 mm 2 m/s 764 mmHg 84%
    11:00 +16°C° 0.2 mm 2 m/s 765 mmHg 80%
    12:00 +17°C° 0 mm 2 m/s 764 mmHg 77%
    13:00 +17°C° 0 mm 2 m/s 764 mmHg 74%
    14:00 +17°C° 0 mm 2 m/s 764 mmHg 70%
    15:00 +17°C° 0 mm 2 m/s 765 mmHg 71%
    16:00 +16°C° 0 mm 2 m/s 765 mmHg 72%
    17:00 +15°C° 0 mm 2 m/s 766 mmHg 73%
    18:00 +15°C° 0 mm 2 m/s 767 mmHg 75%
    19:00 +14°C° 0 mm 2 m/s 767 mmHg 77%
    20:00 +13°C° 0 mm 2 m/s 768 mmHg 79%
    21:00 +13°C° 0 mm 2 m/s 768 mmHg 81%
    22:00 +13°C° 0 mm 2 m/s 768 mmHg 82%
    23:00 +13°C° 0 mm 2 m/s 768 mmHg 84%

    1 Juin, Samedi

    Heure Température Précipitation Vent Pression Humidité
    00:00 +12°C° 0 mm 2 m/s 768 mmHg 84%
    01:00 +12°C° 0 mm 2 m/s 768 mmHg 85%
    02:00 +12°C° 0 mm 2 m/s 768 mmHg 86%
    03:00 +12°C° 0 mm 2 m/s 768 mmHg 86%
    04:00 +12°C° 0 mm 2 m/s 768 mmHg 86%
    05:00 +12°C° 0 mm 2 m/s 768 mmHg 87%
    06:00 +12°C° 0 mm 2 m/s 769 mmHg 86%
    07:00 +11°C° 0 mm 3 m/s 769 mmHg 85%
    08:00 +12°C° 0 mm 3 m/s 769 mmHg 84%
    09:00 +13°C° 0 mm 3 m/s 769 mmHg 79%
    10:00 +15°C° 0 mm 4 m/s 769 mmHg 74%
    11:00 +17°C° 0 mm 4 m/s 769 mmHg 69%
    12:00 +17°C° 0 mm 4 m/s 768 mmHg 70%
    13:00 +17°C° 0 mm 4 m/s 767 mmHg 71%
    14:00 +17°C° 0 mm 4 m/s 767 mmHg 73%
    15:00 +17°C° 0 mm 4 m/s 767 mmHg 76%
    16:00 +15°C° 0 mm 4 m/s 766 mmHg 79%
    17:00 +15°C° 0 mm 4 m/s 766 mmHg 82%
    18:00 +14°C° 0 mm 5 m/s 766 mmHg 85%
    19:00 +14°C° 0 mm 5 m/s 766 mmHg 88%
    20:00 +14°C° 0 mm 5 m/s 766 mmHg 91%
    21:00 +14°C° 0 mm 5 m/s 766 mmHg 92%
    22:00 +14°C° 0 mm 5 m/s 766 mmHg 92%
    23:00 +14°C° 0 mm 5 m/s 765 mmHg 93%
    Voir plus